Regional Weather Roundup
Issued by NWS

Home | Current Version | Previous Version | Graphics & Text | Print | Product List | Glossary On
Versions: 1 2 3 4 5 6 7 8 9 10 11 12 13 14 15 16 17 18 19 20 21 22 23 24 25 26 27 28 29 30 31 32 33 34 35 36 37 38 39 40 41 42 43 44 45 46 47 48 49 50
000
ASUS43 KDTX 162210
RWRMI
MICHIGAN HOURLY REGIONAL WEATHER ROUNDUP
NATIONAL WEATHER SERVICE DETROIT/PONTIAC MI
600 PM EDT WED APR 16 2014

NOTE: "FAIR" INDICATES FEW OR NO CLOUDS BELOW 12,000 FEET WITH NO
SIGNIFICANT WEATHER AND/OR OBSTRUCTION TO VISIBILITY.

MIZ047>049-052>055-059>063-066>070-074>076-081>083-162300-
SOUTHEAST LOWER MICHIGAN

CITY           SKY/WX    TMP DP  RH WIND       PRES   REMARKS
ADRIAN         MOSUNNY   43  22  43 SE12      30.35S
ALMA           SUNNY     45  20  37 SE10G18   30.32F
ANN ARBOR      SUNNY     41  22  46 SE12      30.37S
BAD AXE        MOSUNNY   38  22  51 SE13      30.38S
DETROIT CITY   MOSUNNY   42  10  27 S15       30.41F
DETROIT        PTSUNNY   40  16  37 SE12      30.40F
FLINT          SUNNY     44  20  38 SE13      30.36S
GROSSE ILE     MOSUNNY   39  16  38 SE8       30.39S
HILLSDALE      PTSUNNY   44  21  40 SE12G17   30.31S
HOWELL         SUNNY     41  18  39 SE13      30.35R

CITY           SKY/WX    TMP DP  RH WIND       PRES   REMARKS
JACKSON        MOSUNNY   43  18  36 SE12      30.32S
LAMBERTVILLE   MOSUNNY   41  28  60 E10G16    30.37F
LANSING        MOSUNNY   45  16  31 S8G20     30.32F
LAPEER         NOT AVBL
MASON          MOSUNNY   44  20  38 S9G17     30.32S
MONROE         MOSUNNY   39  21  48 E14       30.37F
MT. CLEMENS    PTSUNNY   37  16  41 SE15      30.40S
PONTIAC        MOSUNNY   39  20  46 S15G22    30.36S
PORT HOPE        N/A     35  21  56 E18       30.39F
PORT HURON     MOSUNNY   39  19  45 S14       30.42S
TRI CITIES     MOSUNNY   45  18  34 S15       30.35F
YPSILANTI      SUNNY     44  21  40 SE12      30.38F
$$
MIZ043>046-050>051-056>058-064>065-071>073-077>080-162300-
SOUTHWEST LOWER MICHIGAN

CITY           SKY/WX    TMP DP  RH WIND       PRES   REMARKS
BATTLE CREEK   PTSUNNY   46  20  35 S16G22    30.29F
BENTON HARBOR  MOSUNNY   48  21  34 SE20G28   30.23F
BIG RAPIDS     CLOUDY    43  22  42 SE13G21   30.28S
COLDWATER      PTSUNNY   44  20  38 SE13G20   30.29F
HOLLAND        MOSUNNY   50  23  34 SE15      30.26F
GRAND RAPIDS   CLOUDY    48  20  32 S14       30.28S
KALAMAZOO      PTSUNNY   47  19  33 SE14G22   30.27F
MARSHALL       PTSUNNY   44  19  37 SE14      30.29F
MUSKEGON       PTSUNNY   49  17  28 SE20      30.25F
$$
MIZ016>042-162300-
NORTHERN LOWER MICHIGAN

CITY           SKY/WX    TMP DP  RH WIND       PRES   REMARKS
ALPENA         MOSUNNY   35  25  66 SE14G25   30.37S
BEAVER ISLAND  CLOUDY    33  24  68 E7        30.36R
BELLAIRE       CLOUDY    39  23  52 N7        30.34R HAZE
CADILLAC       CLOUDY    39  21  50 E10G16    30.27F
CHARLEVOIX     CLOUDY    35  23  63 N5        30.38R
FRANKFORT      CLOUDY    34  31  90 NE10G16   30.28F
GAYLORD        CLOUDY    37  17  44 S10       30.31R
GRAYLING       CLOUDY    38  15  38 S7        30.33R
HARBOR SPRINGS CLOUDY    38  21  49 CALM      30.34R
HOUGHTON LAKE  CLOUDY    39  18  42 S8        30.33R
MANISTEE       CLOUDY    43  19  39 SE7       30.27F
OSCODA         PTSUNNY   35  22  59 E12       30.41R
PELLSTON       CLOUDY    35  19  52 NE12      30.36R
TRAVERSE CITY  FLURRIES  36  29  75 VRB3      30.32S
$$
MIZ007>008-015-162300-
EASTERN UPPER MICHIGAN

CITY           SKY/WX    TMP DP  RH WIND       PRES   REMARKS
KINROSS        CLOUDY    36  16  44 S7        30.36R
MACKINAC ISLAN CLOUDY    31  24  74 E6        30.36S
NEWBERRY       CLOUDY    31  19  61 S8        30.34S
S. S. MARIE    CLOUDY    35  14  42 S8        30.36R
$$
MIZ004>006-011>014-085-162300-
CENTRAL UPPER MICHIGAN

CITY           SKY/WX    TMP DP  RH WIND       PRES   REMARKS
MANISTIQUE     LGT SNOW  29  28  94 SE7       30.33F
ESCANABA       CLOUDY    30  28  93 SE15      30.28F
MENOMINEE      CLOUDY    36  23  60 SE16G22   30.23S
SAWYER-GWINN   LGT SNOW  28  27  93 SE9       30.24F VSB 3/4
$$
MIZ001>003-009>011-084-162300-
WESTERN UPPER MICHIGAN

CITY           SKY/WX    TMP DP  RH WIND       PRES   REMARKS
IRON MOUNTAIN  CLOUDY    30  25  80 E14G21    30.18F
HOUGHTON       LGT SNOW  28  24  85 E10       30.23R VSB 3/4
COPPER HARBOR    N/A     30  26  85 S7        30.27F
IRONWOOD       CLOUDY    28  25  86 E13       30.09S VSB 1
$$

ABBREVIATIONS USED IN REMARKS
   TC - TEMPERATURE IN CELSIUS
  WCI - WIND CHILL INDEX
   HX - HEAT INDEX
  VSB - VISIBILITY




USA.gov is the U.S. government's official web portal to all federal, state and local government web resources and services.